User: anonymous   Login
Location: Mount Kobau Star Party
(49.1167°N, 119.7333°W)
Time: 18:57:54
(UTC-07:00)
Language:

TSX-5 - Orbit

View from above orbital plane
View from above orbital plane
View from above satellite
View from above satellite

Ground track
Ground track

The orbit data is extracted from the following two-line orbital elements,

1 26374U 00030A   17177.82606442 +.00000710 +00000-0 +68301-4 0  9990
2 26374 068.9303 134.5461 0652103 263.5591 089.0916 14.05056224857456
Epoch (UTC): 26 June 2017 19:49:31
Eccentricity: 0.0652103
inclination: 68.9303°
perigee height: 403 km
apogee height: 1349 km
right ascension of ascending node: 134.5461°
argument of perigee: 263.5591°
revolutions per day: 14.05056224
mean anomaly at epoch: 89.0916°
orbit number at epoch: 85745

The dashed part of the orbit path shows where the satellite is in the earth's shadow,  

DLR